Lid_Strength_Index
-0 -0 1 3 11 12 12 11 7 9 9 6 5 6 7 6 8 12 2 1 0 0 -0 -1 -2 -2 -1 -1 -2 -1 -1 -1 -1 -2 -2 -2 -2 -2 -2 -2 -2 -2 -2 -2 -2 -2 -2 -2 -2
0 1 2 6 13 16 13 8 9 8 6 5 5 6 7 8 4 4 3 0 -0 -0 -0 -0 -2 -2 -1 -2 -1 -1 -1 -1 -1 -2 -2 -2 -2 -2 -2 -2 -2 -2 -2 -2 -2 -2 -2 -2 -2
1 1 6 10 12 14 13 8 7 7 5 6 6 5 6 7 4 3 1 0 0 0 -0 -0 -2 -2 -2 -1 -1 -1 -1 -1 -1 -1 -2 -2 -2 -2 -2 -2 -2 -2 -2 -2 -2 -2 -1 -1 -1
3 4 6 12 14 10 9 7 6 7 5 5 5 7 4 2 3 2 0 -0 0 0 -0 -1 -1 -2 -1 -1 -1 -1 -1 -1 -1 -1 -2 -2 -2 -2 -2 -2 -2 -2 -2 -2 -2 -2 -2 -1 -1
3 6 12 13 12 8 7 6 6 7 6 6 5 8 7 3 1 1 1 0 1 0 -0 -0 -2 -2 -1 -2 -1 -2 -1 -1 -1 -1 -2 -2 -2 -2 -2 -2 -2 -2 -2 -2 -2 -2 -1 -1 -1
7 7 13 15 11 8 6 6 6 7 6 6 6 7 6 2 2 1 0 1 0 0 -0 -0 -1 -1 -2 -1 -1 -2 -2 -2 -2 -2 -2 -2 -2 -2 -2 -2 -2 -2 -2 -2 -2 -2 -2 -1 -1
8 10 13 12 11 9 8 5 7 7 7 7 5 8 5 4 2 1 1 0 0 -0 -0 -0 -0 -1 -1 -2 -2 -2 -1 -2 -2 -2 -2 -2 -2 -2 -2 -2 -2 -2 -2 -2 -2 -2 -2 -1 -1
7 9 12 11 11 10 7 6 5 6 7 3 4 8 8 4 1 1 1 1 0 0 -0 0 -0 -0 0 -0 -2 -2 -2 -2 -2 -2 -2 -2 -2 -2 -2 -2 -2 -2 -2 -2 -1 -1 -1 -1 -2
4 12 13 12 11 9 6 8 5 4 5 4 4 4 3 2 1 2 2 2 1 1 0 0 0 0 0 -0 -1 -1 -2 -2 -2 -1 -2 -1 -0 -0 -1 -1 -2 -1 -1 -1 -1 -1 -1 -1 -1
8 12 12 9 8 8 7 7 6 6 6 6 5 3 2 2 2 3 3 3 2 2 1 0 0 0 0 -0 0 -0 -0 -1 -1 1 0 0 0 0 -1 -1 -2 -1 -1 -1 -1 -2 -2 -1 -0
8 11 9 8 7 6 7 7 5 7 8 6 6 5 3 3 3 3 3 3 2 2 1 1 1 0 1 0 0 0 -0 -0 -0 1 2 0 -0 0 1 -0 -1 -0 -1 2 -1 -1 -1 -1 -0
10 8 8 8 7 7 7 5 6 6 6 4 4 3 3 4 3 3 3 2 2 2 1 1 0 0 1 -0 0 0 0 0 0 0 -0 0 -1 -0 1 0 -1 -0 1 2 0 -0 0 -0 -0
9 8 7 7 7 7 6 7 6 6 4 3 3 3 4 3 3 3 2 2 2 2 1 1 0 0 1 0 0 0 0 0 1 -0 0 -0 0 0 0 1 -0 1 -0 0 1 0 1 0 0
7 8 8 7 7 7 7 7 6 6 4 4 4 4 4 3 3 3 2 2 2 2 1 1 1 0 0 0 0 0 0 0 -0 0 0 1 0 1 0 2 -0 0 -0 -0 1 0 0 0 1
7 9 8 8 7 8 7 9 8 5 4 5 5 4 4 3 3 3 2 2 2 2 1 1 1 0 0 0 0 1 1 -0 1 1 3 3 2 -0 1 0 1 0 0 0 0 0 0 0 -0
10 9 13 9 8 7 8 12 7 5 5 6 5 4 4 3 3 2 2 2 2 1 1 1 0 0 1 1 0 0 0 0 -0 1 2 2 0 -0 0 0 0 0 0 0 -0 0 1 1 1
11 15 13 12 8 9 10 11 7 5 5 6 5 5 4 4 3 2 2 2 2 1 1 1 1 1 1 0 0 0 0 0 0 0 -0 0 0 -0 0 0 0 0 0 0 1 1 1 1 2
15 14 13 13 10 10 11 10 7 6 6 6 6 5 5 4 4 3 2 1 1 1 1 1 1 1 1 0 0 0 0 0 0 0 -0 0 -0 -0 0 0 2 3 2 0 0 1 1 1 2
11 12 14 12 10 11 12 11 10 8 6 6 6 6 5 5 3 2 2 2 1 1 1 1 1 1 1 1 1 1 2 1 0 0 0 0 0 -0 0 0 2 3 1 2 1 1 1 1 1
11 13 14 11 10 11 12 12 10 8 8 7 7 5 5 4 4 3 3 2 2 2 2 1 1 1 1 1 1 1 1 1 0 0 0 0 -0 0 -0 0 2 1 2 1 1 1 2 2 1
11 13 13 13 11 10 12 13 12 9 8 7 6 6 5 5 5 4 3 3 2 2 2 2 1 1 1 0 1 1 0 0 1 1 1 0 -0 -0 -0 0 0 1 1 2 1 1 1 3 2
14 10 11 12 13 17 11 18 13 11 10 8 7 7 6 5 4 4 3 3 3 2 1 1 1 1 1 0 1 2 2 3 1 1 0 0 -0 -0 -0 0 0 0 1 1 1 0 1 1 3
12 9 11 11 13 14 14 17 14 11 12 10 8 7 6 5 4 4 3 3 2 2 2 1 1 1 1 1 1 1 2 1 1 1 1 1 0 -0 -0 0 0 0 0 0 1 1 1 1 2
8 11 11 11 14 18 14 16 15 14 12 9 8 7 6 5 5 4 3 3 2 2 2 1 1 1 1 1 1 1 2 2 2 2 1 1 1 0 0 0 0 0 0 0 0 1 1 1 1
10 13 19 20 19 20 14 16 14 10 9 8 7 7 6 5 5 4 4 3 3 2 2 2 2 2 1 1 1 1 1 1 2 1 1 2 2 1 1 0 1 1 1 0 1 1 1 1 1
11 12 16 21 20 18 14 18 14 9 7 6 6 5 5 5 5 4 4 3 3 2 2 2 2 2 1 1 1 1 1 1 1 1 1 2 2 1 1 1 0 0 0 0 0 1 1 1 1
10 13 9 15 14 16 16 14 10 9 8 7 7 6 6 5 5 5 4 3 3 2 2 2 2 2 1 1 1 1 1 1 1 1 1 1 1 1 1 0 0 0 0 0 0 1 1 1 1
8 8 13 13 20 20 17 15 16 11 10 8 7 7 6 5 5 4 4 3 3 2 2 2 1 2 1 1 1 1 1 1 1 1 1 2 0 -0 0 0 1 0 0 0 0 1 1 1 1
12 12 12 12 13 18 20 17 11 10 9 9 8 6 6 5 5 4 4 3 3 2 2 2 2 2 2 1 1 1 1 1 1 1 1 1 0 1 1 1 1 1 1 0 1 1 1 1 1
10 12 12 14 14 13 14 15 8 8 8 8 8 7 6 5 4 4 4 3 3 3 3 2 2 2 1 1 1 1 1 1 1 1 1 2 1 1 0 1 0 1 1 1 1 1 1 1 1